Weather History for Deer Park, WA

Change the Weather History Date:

Tuesday, December 10, 2013

  Actual Average Record
Temperature  
Mean Temperature 14 °F 26 °F  
Max Temperature 25 °F 32 °F 46 °F (2004)
Min Temperature 3 °F 19 °F 3 °F (2013)
Degree Days  
Heating Degree Days 51 39  
Month to date heating degree days 481 380  
Since 1 July heating degree days 2397 2383  
Cooling Degree Days 0 0  
Month to date cooling degree days 0 0  
Year to date cooling degree days 310 187  
Moisture  
Dew Point 9 °F    
Average Humidity 72    
Maximum Humidity 88    
Minimum Humidity 55    
Precipitation  
Precipitation 0.00 in 0.09 in 0.23 in (2010)
Month to date precipitation 0.32 0.89  
Year to date precipitation 17.74 20.28  
Sea Level Pressure  
Sea Level Pressure 30.46 in    
Wind  
Wind Speed 1 mph (NNW)    
Max Wind Speed 6 mph    
Max Gust Speed 7 mph    
Visibility 9 miles    
Events      
T = Trace of Precipitation, MM = Missing Value Source: NWS Daily Summary

Daily Weather History Graph

Daily Weather History Graph

Search for Another Location

Airport:

Trip Planner

Search our weather history database for the weather conditions in past years. The results will help you decide how hot, cold, wet, or windy it might be!

Date:

Astronomy

Dec. 10, 2013 Rise Set
Actual Time 7:28 AM PST 3:56 PM PST
Civil Twilight 6:52 AM PST 4:32 PM PST
Nautical Twilight 6:13 AM PST 5:12 PM PST
Astronomical Twilight 5:35 AM PST 5:49 PM PST
Moon 12:23 PM PST (12/10) 12:26 AM PST (12/10)
Length of Visible Light 9h 40m
Length of Day
8h 27m
Waxing Gibbous, 63% of the Moon is Illuminated
Dec 10
Waxing Gibbous
Dec 17
Full
Dec 25
Last Quarter
Jan 1
New
Jan 7
First Quarter

Hourly Weather History & Observations

Time (PST) Temp. Windchill Dew Point Humidity Pressure Visibility Wind Dir Wind Speed Gust Speed Precip Events Conditions
12:53 AM 17.1 °F - 10.0 °F 74% 30.39 in 10.0 mi Calm Calm - N/A   Overcast
1:53 AM 18.0 °F - 10.0 °F 71% 30.39 in 10.0 mi Calm Calm - N/A   Overcast
2:53 AM 17.1 °F - 10.9 °F 77% 30.38 in 10.0 mi Calm Calm - N/A   Mostly Cloudy
3:53 AM 14.0 °F - 9.0 °F 80% 30.40 in 10.0 mi Calm Calm - N/A   Clear
4:53 AM 7.0 °F - 3.9 °F 87% 30.42 in 9.0 mi Calm Calm - N/A   Partly Cloudy
5:53 AM 6.1 °F - 1.9 °F 83% 30.43 in 9.0 mi Calm Calm - N/A   Clear
6:53 AM 5.0 °F - 1.9 °F 87% 30.44 in 9.0 mi Calm Calm - N/A   Clear
7:53 AM 3.9 °F -5.3 °F -0.9 °F 80% 30.47 in 4.0 mi NNW 4.6 mph - N/A   Haze
8:53 AM 12.0 °F - 9.0 °F 88% 30.49 in 9.0 mi Calm Calm - N/A   Overcast
9:53 AM 15.1 °F - 10.0 °F 80% 30.50 in 8.0 mi Calm Calm - N/A   Mostly Cloudy
10:53 AM 19.0 °F - 10.9 °F 71% 30.49 in 10.0 mi Calm Calm - N/A   Partly Cloudy
11:53 AM 21.9 °F - 10.9 °F 63% 30.48 in 10.0 mi Calm Calm - N/A   Clear
12:53 PM 23.0 °F 18.4 °F 10.9 °F 60% 30.46 in 10.0 mi SSE 3.5 mph - N/A   Clear
1:53 PM 24.1 °F - 10.9 °F 57% 30.46 in 10.0 mi Calm Calm - N/A   Clear
2:53 PM 25.0 °F - 10.9 °F 55% 30.47 in 10.0 mi Calm Calm - N/A   Clear
3:53 PM 21.0 °F - 10.0 °F 63% 30.48 in 9.0 mi Calm Calm - N/A   Clear
4:53 PM 12.0 °F 4.1 °F 7.0 °F 80% 30.51 in 10.0 mi NW 4.6 mph - N/A   Clear
5:53 PM 12.0 °F - 7.0 °F 80% 30.53 in 10.0 mi Calm Calm - N/A   Clear
6:53 PM 10.9 °F - 7.0 °F 84% 30.51 in 10.0 mi Calm Calm - N/A   Clear
7:32 PM 10.4 °F 2.2 °F 6.8 °F 85% 30.38 in 6.0 mi NW 4.6 mph - N/A   Mostly Cloudy
7:53 PM 14.0 °F - 9.0 °F 80% 30.53 in 9.0 mi Calm Calm - N/A   Overcast
8:33 PM 17.6 °F 10.7 °F 10.4 °F 73% 30.40 in 10.0 mi NNW 4.6 mph - N/A   Overcast
8:53 PM 17.1 °F 11.7 °F 10.9 °F 77% 30.52 in 10.0 mi NNW 3.5 mph - N/A   Overcast
9:43 PM 19.4 °F - 12.2 °F 74% 30.40 in 10.0 mi Calm Calm - N/A   Overcast
9:53 PM 19.9 °F - 12.0 °F 71% 30.51 in 10.0 mi Calm Calm - N/A   Overcast
10:53 PM 21.0 °F 16.2 °F 12.0 °F 68% 30.52 in 10.0 mi NNE 3.5 mph - N/A   Overcast
11:53 PM 21.0 °F 13.4 °F 12.9 °F 71% 30.50 in 10.0 mi NNE 5.8 mph - N/A   Overcast